Regional Weather Roundup
Issued by NWS

Home | Current Version | Previous Version | Graphics & Text | Print | Product List | Glossary On
Versions: 1 2 3 4 5 6 7 8 9 10 11 12 13 14 15 16 17 18 19 20 21 22 23 24 25 26 27 28 29 30 31 32 33 34 35 36 37 38 39 40 41 42 43 44 45 46 47 48 49 50
000
ASUS45 KABQ 261901
RWRNM
NEW MEXICO REGIONAL WEATHER ROUNDUP
NATIONAL WEATHER SERVICE ALBUQUERQUE NM
100 PM MDT MON JUN 26 2017

NOTE: "FAIR" MEANS FEW OR NO CLOUDS BELOW 12,000 FEET AGL WITH NO
       SIGNIFICANT WEATHER OR OBSTRUCTIONS TO VISION.

      THIS PRODUCT IS RELEASED AS TWO VERSIONS.  ONE VERSION NEAR
      THE TOP OF THE HOUR CONTAINING PRELIMINARY DATA FROM ALBUQUERQUE
      AND OTHER STATIONS.  A FINAL VERSION WITH ADDITIONAL DATA IS
      ISSUED ABOUT 10 MINUTES AFTER THE HOUR.

NMZ501-503-504-510>518-262000-
NORTHWEST PLATEAU/NORTHCENTRAL MOUNTAINS

CITY           SKY/WX    TMP DP  RH WIND       PRES   REMARKS
FARMINGTON     FAIR      85  42  22 SE5       30.19F
LOS ALAMOS     FAIR      73  49  43 S9        30.37F
SANTA FE       FAIR      81  49  32 S9G20     30.30F
TAOS           FAIR      75  45  33 CALM        N/A
ANGEL FIRE     FAIR      73  42  32 SE6       30.42F

$$
NMZ402-403-502-505>509-262000-
WESTCENTRAL MOUNTAINS/SOUTHWEST MOUNTAINS

CITY           SKY/WX    TMP DP  RH WIND       PRES   REMARKS
GALLUP         FAIR      87  31  13 VRB6      30.27F
GRANTS         FAIR      83  44  25 S8        30.32F
SILVER CITY    FAIR      81  51  35 E6        30.29F

$$
NMZ407-409-411-412-262000-
SOUTHERN DESERTS

CITY           SKY/WX    TMP DP  RH WIND       PRES   REMARKS
DEMING         FAIR      87  54  32 S8        30.20F
LAS CRUCES     FAIR      83  55  37 S6        30.23F
HOLLOMAN AFB   FAIR      89  55  31 CALM      30.21F
ALAMOGORDO     FAIR      84  57  39 S15G21    30.21F
T OR C         FAIR      86  50  28 S8G18     30.21F

$$
NMZ519>523-262000-
CENTRAL VALLEYS/CENTRAL HIGHLANDS

CITY           SKY/WX    TMP DP  RH WIND       PRES   REMARKS
ALBUQUERQUE    PTSUNNY   80  50  34 SW7       30.25F
DOUBLE EAGLE   MOSUNNY   81  54  39 SE8       30.29F
MORIARTY ARPT  FAIR      78  55  43 SE10      30.34F
CLINES CORNERS FAIR      68  54  60 VRB5G17   30.39F
BELEN          NOT AVBL
SOCORRO        FAIR      83  50  32 SE8       30.22F

$$
NMZ524>526-539-540-262000-
SOUTHCENTRAL MOUNTAINS

CITY           SKY/WX    TMP DP  RH WIND       PRES   REMARKS
RUIDOSO        FAIR      72  55  56 NE5       30.40F

$$
NMZ527>531-262000-
NORTHEAST HIGHLANDS/NORTHEAST PLAINS

CITY           SKY/WX    TMP DP  RH WIND       PRES   REMARKS
LAS VEGAS      FAIR      65  53  65 S9        30.39S
RATON          FAIR      73  56  54 SE12      30.31F
CLAYTON        FAIR      79  54  41 S14       30.25F

$$
NMZ532>537-262000-
EASTCENTRAL PLAINS

CITY           SKY/WX    TMP DP  RH WIND       PRES   REMARKS
SANTA ROSA     FAIR      75  56  51 SE9       30.26F
TUCUMCARI      FAIR      81  56  42 VRB6      30.20F
CANNON AFB     FAIR      79  58  48 SW7       30.24F
CLOVIS AIRPORT FAIR      80  56  43 VRB5      30.24F

$$
NMZ028-029-538-262000-
SOUTHEAST PLAINS

CITY           SKY/WX    TMP DP  RH WIND       PRES   REMARKS
ROSWELL        FAIR      80  59  48 VRB3      30.21F
ARTESIA        PTSUNNY   79  61  53 SE6       30.21F
CARLSBAD       CLOUDY    78  66  66 CALM      30.19F
HOBBS          PTSUNNY   81  59  47 W10       30.21F


$$




USA.gov is the U.S. government's official web portal to all federal, state and local government web resources and services.